This is the latest recevied weather packets stored in our database for station/object N9DMT-13. If no packets are shown the sender has not sent any weather packets the latest 10 day(s).
| Time | Temp. | Humidity | Pressure | Rain* | Wind** | Luminosity | Snow |
|---|---|---|---|---|---|---|---|
| 1777864897 | 8.89° C | 79% | 973.5 hPa | 0 mm | - | - | - |
| 1777864597 | 8.89° C | 79% | 973.4 hPa | 0 mm | - | - | - |
| 1777864296 | 8.89° C | 79% | 973.5 hPa | 0 mm | - | - | - |
| 1777863995 | 9.44° C | 79% | 973.5 hPa | 0 mm | - | - | - |
| 1777863694 | 9.44° C | 78% | 973.4 hPa | 0 mm | - | - | - |
| 1777863393 | 9.44° C | 76% | 973.6 hPa | 0 mm | - | - | - |
| 1777863093 | 9.44° C | 78% | 973.4 hPa | 0 mm | - | - | - |
| 1777862791 | 10° C | 78% | 973.4 hPa | 0 mm | - | - | - |
| 1777862491 | 10° C | 76% | 973.4 hPa | 0 mm | - | - | - |
| 1777862190 | 10° C | 75% | 973.3 hPa | 0 mm | - | - | - |
| 1777861889 | 10.56° C | 76% | 973.3 hPa | 0 mm | - | - | - |
| 1777861588 | 10.56° C | 73% | 973.2 hPa | 0 mm | - | - | - |
| 1777861288 | 10.56° C | 70% | 973.2 hPa | 0 mm | - | - | - |
| 1777860987 | 11.11° C | 70% | 973.2 hPa | 0 mm | - | - | - |
| 1777860686 | 11.67° C | 71% | 973.2 hPa | 0 mm | - | - | - |
| 1777860385 | 11.67° C | 67% | 973.1 hPa | 0 mm | - | - | - |
| 1777860085 | 12.22° C | 65% | 973 hPa | 0 mm | - | - | - |
| 1777859784 | 12.22° C | 64% | 973.1 hPa | 0 mm | - | - | - |
| 1777859483 | 12.22° C | 63% | 972.9 hPa | 0 mm | - | - | - |
| 1777859182 | 12.78° C | 64% | 973 hPa | 0 mm | - | - | - |
| 1777858881 | 12.78° C | 66% | 972.8 hPa | 0 mm | - | - | - |
| 1777858581 | 13.33° C | 61% | 972.8 hPa | 0 mm | - | - | - |
| 1777858280 | 13.33° C | 63% | 972.8 hPa | 0 mm | - | - | - |
| 1777857980 | 13.89° C | 60% | 972.6 hPa | 0 mm | - | - | - |
| 1777857679 | 14.44° C | 60% | 972.6 hPa | 0 mm | - | - | - |
* Rain latest hour (hover to see other rain measurements)
** Current wind speed in m/s (hover to see current wind gust speed)